Regional Weather Roundup
Issued by NWS

Home | Current Version | Previous Version | Text Only | Print | Product List | Glossary On
Versions: 1 2 3 4 5 6 7 8 9 10 11 12 13 14 15 16 17 18 19 20 21 22 23 24 25 26 27
000
ASUS45 KBOI 261510
RWRID

IDAHO REGIONAL WEATHER ROUNDUP
NATIONAL WEATHER SERVICE BOISE ID
900 AM MDT WED JUL 26 2017

NOTE: "FAIR" INDICATES FEW OR NO CLOUDS BELOW 12000 FEET
WITH NO SIGNIFICANT WEATHER AND/OR OBSTRUCTIONS TO VISIBILITY

IDZ012-014-261600-
SOUTHWEST IDAHO


CITY           SKY/WX    TMP DP  RH WIND       PRES   REMARKS
BOISE          PTSUNNY   72  58  61 SE12      30.10R
CALDWELL       PTSUNNY   75  62  64 NE3       30.07R
MOUNTAIN HOME  PTSUNNY   75  61  60 E10       30.10R
$$

IDZ016-017-261600-
SOUTHCENTRAL IDAHO


CITY           SKY/WX    TMP DP  RH WIND       PRES   REMARKS
BURLEY         MOSUNNY   69  57  65 CALM      30.18R
JEROME         MOSUNNY   73  58  59 E8        30.17S
TWIN FALLS     SUNNY     74  58  57 E6        30.17R
$$

IDZ019>023-261600-
SOUTHEAST IDAHO


CITY           SKY/WX    TMP DP  RH WIND       PRES   REMARKS
IDAHO FALLS    CLOUDY    65  56  72 SW8       30.23R
POCATELLO      TSTM      63  60  90 S7        30.23R
REXBURG        PTSUNNY   63  54  72 CALM      30.22R
$$

IDZ006-010-011-018-031-032-261600-
CENTRAL IDAHO MOUNTAINS


CITY           SKY/WX    TMP DP  RH WIND       PRES   REMARKS
MCCALL         MOSUNNY   66  48  52 CALM      30.20R
HAILEY         LGT RAIN  61  57  88 NW7       30.27S
STANLEY          N/A     56  54  93 CALM      30.33R
SALMON         NOT AVBL
CHALLIS        CLOUDY    61  54  77 CALM      30.25S
$$

IDZ002-004-006-007-026-261600-
NORTHERN IDAHO


CITY           SKY/WX    TMP DP  RH WIND       PRES   REMARKS
LEWISTON       SUNNY     71  47  42 NE5       30.03R
LOWELL           N/A     59  48  67 CALM      30.10S
COEUR D`ALENE  NOT AVBL
MULLAN PASS    SUNNY     66  34  30 CALM      30.25R
$$




USA.gov is the U.S. government's official web portal to all federal, state and local government web resources and services.